Flag for Austria Weather past 2 weeks in Fürstenfeld, Styria, Austria

Now
45 °F

Overcast.


Feels Like: 43 °F
Forecast: 35 / 43 °F
Wind: 5 mph from Northeast

Location: Murska Sobota

Current Time: Mar 4, 2015 at 8:14:43 PM

Latest Report: Mar 4, 2015 at 7:00 PM


Visibility: 13 mi

Pressure: 30.27 "Hg

Humidity: 51%

Dew point: 28 °F

Location of FürstenfeldLocation

Historic Weather in Fürstenfeld — Graph

°F

Fürstenfeld temperature yesterday

Maximum temperature yesterday: 53 °F (at 3:00 PM)
Minimum temperature yesterday: 31 °F (at 5:00 AM)
Average temperature yesterday: 41 °F

Past Weeks' High & Low Weather Summary

 TemperatureHumidityPressure
High53 °F (Mar 2, 4:00 PM)98% (Feb 24, 4:00 AM)30.79 "Hg (Feb 24, 4:00 AM)
Low22 °F (Feb 20, 7:00 AM)26% (Mar 3, 4:00 PM)29.66 "Hg (Feb 23, 4:00 PM)
Average40 °F75%30.06 "Hg
* Reported Feb 17 7:00 PM — Mar 4 6:00 PM, Fürstenfeld, Weather by CustomWeather, © 2015

Note: Actual official high and low records may vary slightly from our data, if they occured in-between our weather recording intervals... More about our weather records

Advertising

Fürstenfeld weather history for previous 24 hours

 ConditionsComfort  
Time TempWeatherWind HumidityBarometerVisibility
6:00 PM
Wed, Mar 4
46 °FCool.6 mph46%30.24 "HgN/A
5:00 PM47 °FCool.3 mph52%30.22 "HgN/A
4:00 PM48 °FCool.6 mph51%30.22 "HgN/A
3:00 PM50 °FCool.6 mph48%30.20 "HgN/A
2:00 PM51 °FPartly sunny.7 mph50%30.20 "Hg31 mi
1:00 PM52 °FPartly sunny.7 mph47%30.20 "Hg31 mi
12:00 PM51 °FCool.2 mph46%30.19 "HgN/A
11:00 AM48 °FCool.2 mph53%30.21 "HgN/A
10:00 AM44 °FQuite cool.1 mph61%30.21 "HgN/A
9:00 AM40 °FChilly.1 mph69%30.22 "HgN/A
8:00 AM35 °FOvercast.No wind81%30.22 "Hg19 mi
7:00 AM33 °FOvercast.1 mph83%30.20 "Hg19 mi
6:00 AM32 °FChilly.1 mph84%30.21 "HgN/A
5:00 AM31 °FChilly.1 mph86%30.22 "HgN/A
4:00 AM32 °FChilly.1 mph81%30.22 "HgN/A
3:00 AM31 °FChilly.1 mph80%30.24 "HgN/A
2:00 AM33 °FChilly.2 mph74%30.25 "HgN/A
1:00 AM32 °FChilly.1 mph75%30.26 "HgN/A
12:00 AM32 °FChilly.2 mph76%30.27 "HgN/A
11:00 PM
Tue, Mar 3
33 °FChilly.1 mph75%30.28 "HgN/A
10:00 PM35 °FChilly.2 mph66%30.27 "HgN/A
9:00 PM40 °FQuite cool.2 mph50%30.27 "HgN/A
8:00 PM41 °FQuite cool.2 mph47%30.26 "HgN/A
Weather by CustomWeather, © 2015

See weather overviewHow to use our weather pages